WMT7GJ LROP-LIRF

Flight info

Callsign WMT7GJ
Flight time 1h 57m
Altitude 35000
Route POLUN1K/08L POLUN DCT ANASA DCT MITNO DCT VELIT DCT VELUG/N0448F370 DCT ARSOB DCT ETRIN DCT ESODU/N0377F190 Z924 MOPUV
Aircraft A20N/M-SDE2E3FGHIRWXY/LB1

Departure

Time 2026-05-06 17:10
Airport Bucharest Henri Coandă International Airport (LROP)

Arrival

Time 2026-05-06 19:08
Airport Rome–Fiumicino Leonardo da Vinci International Airport (LIRF)
Time Latitude Longitude Altitude Speed Heading
2026-05-06 17:00 44.56892 26.08928 322 ft 0 kts 173°
2026-05-06 17:06 44.56879 26.08930 321 ft 4 kts 173°
2026-05-06 17:06 44.56845 26.08909 322 ft 8 kts 246°
2026-05-06 17:06 44.56834 26.08805 322 ft 14 kts 264°
2026-05-06 17:06 44.56822 26.08641 322 ft 20 kts 264°
2026-05-06 17:07 44.56864 26.08543 322 ft 6 kts
2026-05-06 17:07 44.56911 26.08547 320 ft 8 kts 353°
2026-05-06 17:07 44.56978 26.08542 322 ft 11 kts 356°
2026-05-06 17:07 44.57067 26.08529 319 ft 15 kts 354°
2026-05-06 17:08 44.57183 26.08513 321 ft 19 kts 354°
2026-05-06 17:08 44.57321 26.08493 322 ft 21 kts 353°
2026-05-06 17:08 44.57474 26.08471 320 ft 23 kts 354°
2026-05-06 17:08 44.57630 26.08452 322 ft 20 kts
2026-05-06 17:09 44.57666 26.08502 322 ft 0 kts 85°
2026-05-06 17:09 44.57667 26.08513 323 ft 5 kts 84°
2026-05-06 17:09 44.57697 26.08902 321 ft 76 kts 84°
2026-05-06 17:09 44.57774 26.09933 320 ft 133 kts 84°
2026-05-06 17:10 44.57884 26.11416 486 ft 164 kts 85°
2026-05-06 17:10 44.58005 26.12979 1129 ft 163 kts 85°
2026-05-06 17:10 44.58134 26.14558 1792 ft 163 kts 85°
2026-05-06 17:10 44.58272 26.16132 2435 ft 162 kts 84°
2026-05-06 17:11 44.58411 26.17713 2988 ft 167 kts 85°
2026-05-06 17:11 44.58439 26.19435 3298 ft 187 kts 105°
2026-05-06 17:11 44.57740 26.21032 3673 ft 205 kts 142°
2026-05-06 17:11 44.56376 26.21804 4090 ft 223 kts 177°
2026-05-06 17:12 44.54809 26.21353 4450 ft 243 kts 210°
2026-05-06 17:12 44.53533 26.19692 4890 ft 263 kts 240°
2026-05-06 17:12 44.52879 26.17252 5548 ft 273 kts 256°
2026-05-06 17:12 44.52368 26.14664 6423 ft 278 kts 256°
2026-05-06 17:13 44.51841 26.12033 7289 ft 282 kts 256°
2026-05-06 17:13 44.51293 26.09376 8177 ft 285 kts 256°
2026-05-06 17:13 44.50733 26.06727 9053 ft 289 kts 256°
2026-05-06 17:13 44.50142 26.04013 9928 ft 293 kts 256°
2026-05-06 17:14 44.49528 26.01230 10483 ft 309 kts 256°
2026-05-06 17:14 44.48878 25.98230 10737 ft 333 kts 256°
2026-05-06 17:14 44.48191 25.95025 11171 ft 348 kts 256°
2026-05-06 17:14 44.47497 25.91752 11917 ft 353 kts 256°
2026-05-06 17:15 44.46796 25.88436 12670 ft 358 kts 256°
2026-05-06 17:15 44.46087 25.85053 13409 ft 364 kts 256°
2026-05-06 17:15 44.45374 25.81638 14124 ft 368 kts 256°
2026-05-06 17:15 44.44662 25.78193 14836 ft 370 kts 256°
2026-05-06 17:16 44.43951 25.74713 15549 ft 373 kts 256°
2026-05-06 17:16 44.43240 25.71199 16244 ft 376 kts 256°
2026-05-06 17:16 44.42530 25.67654 16921 ft 380 kts 256°
2026-05-06 17:16 44.41830 25.64128 17595 ft 383 kts 257°
2026-05-06 17:17 44.41422 25.60454 18248 ft 384 kts 269°
2026-05-06 17:17 44.41283 25.56697 18842 ft 387 kts 269°
2026-05-06 17:17 44.41158 25.52926 19429 ft 389 kts 269°
2026-05-06 17:17 44.41054 25.49129 20027 ft 392 kts 270°
2026-05-06 17:18 44.40964 25.45304 20606 ft 394 kts 270°
2026-05-06 17:18 44.40881 25.41462 21190 ft 397 kts 270°
2026-05-06 17:18 44.40799 25.37593 21763 ft 399 kts 270°
2026-05-06 17:18 44.40715 25.33693 22329 ft 402 kts 270°
2026-05-06 17:19 44.40628 25.29762 22895 ft 405 kts 270°
2026-05-06 17:19 44.40538 25.25810 23450 ft 408 kts 270°
2026-05-06 17:19 44.40447 25.21829 23935 ft 410 kts 270°
2026-05-06 17:19 44.40353 25.17835 24413 ft 412 kts 270°
2026-05-06 17:20 44.40258 25.13867 24875 ft 414 kts 270°
2026-05-06 17:20 44.40161 25.09829 25322 ft 416 kts 271°
2026-05-06 17:20 44.40062 25.05759 25760 ft 418 kts 271°
2026-05-06 17:20 44.39960 25.01678 26199 ft 420 kts 271°
2026-05-06 17:21 44.39857 24.97588 26620 ft 422 kts 271°
2026-05-06 17:21 44.39752 24.93469 27043 ft 424 kts 271°
2026-05-06 17:21 44.39645 24.89329 27431 ft 427 kts 271°
2026-05-06 17:21 44.39536 24.85174 27828 ft 429 kts 271°
2026-05-06 17:22 44.39426 24.80995 28199 ft 431 kts 271°
2026-05-06 17:22 44.39314 24.76853 28567 ft 433 kts 271°
2026-05-06 17:22 44.39200 24.72631 28918 ft 435 kts 271°
2026-05-06 17:22 44.39083 24.68398 29269 ft 437 kts 271°
2026-05-06 17:23 44.38964 24.64136 29603 ft 438 kts 271°
2026-05-06 17:23 44.38843 24.59861 29945 ft 441 kts 271°
2026-05-06 17:23 44.38720 24.55578 30246 ft 442 kts 271°
2026-05-06 17:23 44.38595 24.51259 30548 ft 444 kts 271°
2026-05-06 17:24 44.38468 24.46944 30842 ft 445 kts 271°
2026-05-06 17:24 44.38338 24.42612 31168 ft 446 kts 271°
2026-05-06 17:24 44.38207 24.38288 31567 ft 445 kts 271°
2026-05-06 17:24 44.38076 24.33981 31964 ft 443 kts 271°
2026-05-06 17:25 44.37942 24.29676 32366 ft 442 kts 271°
2026-05-06 17:25 44.37808 24.25394 32766 ft 440 kts 271°
2026-05-06 17:25 44.37674 24.21179 33141 ft 438 kts 271°
2026-05-06 17:25 44.37537 24.16927 33515 ft 437 kts 271°
2026-05-06 17:26 44.37400 24.12691 33877 ft 436 kts 271°
2026-05-06 17:26 44.37261 24.08466 34196 ft 434 kts 271°
2026-05-06 17:26 44.37122 24.04256 34476 ft 433 kts 270°
2026-05-06 17:26 44.36981 24.00052 34733 ft 433 kts 270°
2026-05-06 17:27 44.36839 23.95851 34934 ft 433 kts 270°
2026-05-06 17:27 44.36551 23.87477 34962 ft 430 kts 270°
2026-05-06 17:28 44.36258 23.79111 34965 ft 430 kts 270°
2026-05-06 17:28 44.35959 23.70774 34963 ft 430 kts 270°
2026-05-06 17:29 44.35653 23.62419 34957 ft 430 kts 270°
2026-05-06 17:29 44.35344 23.54129 34954 ft 429 kts 270°
2026-05-06 17:30 44.35100 23.47718 34951 ft 429 kts 270°
2026-05-06 17:30 44.34779 23.39389 34948 ft 429 kts 270°
2026-05-06 17:31 44.34450 23.31057 34950 ft 429 kts 269°
2026-05-06 17:31 44.34117 23.22737 34952 ft 429 kts 269°
2026-05-06 17:32 44.33777 23.14415 34950 ft 429 kts 269°
2026-05-06 17:32 44.33432 23.06103 34950 ft 429 kts 269°
2026-05-06 17:33 44.33084 22.97844 34925 ft 424 kts 269°
2026-05-06 17:33 44.32733 22.89677 34946 ft 420 kts 268°
2026-05-06 17:34 44.32375 22.81488 34942 ft 421 kts 268°
2026-05-06 17:34 44.32015 22.73381 34942 ft 421 kts 268°
2026-05-06 17:35 44.31646 22.65220 34942 ft 421 kts 268°
2026-05-06 17:35 44.31245 22.57054 34943 ft 421 kts 265°
2026-05-06 17:36 44.29626 22.44953 34945 ft 423 kts 260°
2026-05-06 17:36 44.28442 22.36910 34942 ft 423 kts 260°
2026-05-06 17:37 44.27260 22.28920 34944 ft 423 kts 260°
2026-05-06 17:37 44.26061 22.20890 34947 ft 422 kts 260°
2026-05-06 17:38 44.24854 22.12861 34951 ft 423 kts 260°
2026-05-06 17:38 44.23641 22.04835 34950 ft 423 kts 259°
2026-05-06 17:39 44.22421 21.96809 34957 ft 423 kts 259°
2026-05-06 17:39 44.21199 21.88804 34955 ft 422 kts 259°
2026-05-06 17:40 44.20175 21.82128 34950 ft 422 kts 259°
2026-05-06 17:40 44.18942 21.74123 34951 ft 422 kts 259°
2026-05-06 17:41 44.17704 21.66122 34943 ft 422 kts 259°
2026-05-06 17:41 44.16468 21.58179 34940 ft 422 kts 259°
2026-05-06 17:42 44.15220 21.50200 34935 ft 422 kts 259°
2026-05-06 17:42 44.13966 21.42214 34926 ft 421 kts 259°
2026-05-06 17:43 44.12708 21.34244 34923 ft 421 kts 258°
2026-05-06 17:43 44.11445 21.26281 34923 ft 421 kts 258°
2026-05-06 17:44 44.10176 21.18321 34920 ft 421 kts 258°
2026-05-06 17:44 44.08904 21.10381 34922 ft 421 kts 258°
2026-05-06 17:45 44.07634 21.02484 34918 ft 420 kts 258°
2026-05-06 17:45 44.06351 20.94551 34919 ft 420 kts 258°
2026-05-06 17:46 44.05067 20.86647 34915 ft 419 kts 258°
2026-05-06 17:46 44.03776 20.78742 34916 ft 418 kts 258°
2026-05-06 17:47 44.02483 20.70857 34914 ft 418 kts 258°
2026-05-06 17:47 44.01188 20.62996 34913 ft 417 kts 258°
2026-05-06 17:48 43.99890 20.55156 34912 ft 415 kts 258°
2026-05-06 17:48 43.98594 20.47361 34918 ft 415 kts 258°
2026-05-06 17:49 43.97289 20.39542 34918 ft 416 kts 258°
2026-05-06 17:49 43.95984 20.31760 34918 ft 415 kts 257°
2026-05-06 17:50 43.94671 20.23965 34922 ft 414 kts 257°
2026-05-06 17:50 43.93351 20.16168 34928 ft 414 kts 257°
2026-05-06 17:51 43.92028 20.08382 34933 ft 413 kts 257°
2026-05-06 17:51 43.90717 20.00702 34943 ft 411 kts 257°
2026-05-06 17:52 43.89391 19.92975 34949 ft 411 kts 257°
2026-05-06 17:52 43.88068 19.85295 34952 ft 408 kts 257°
2026-05-06 17:53 43.86741 19.77623 34950 ft 409 kts 257°
2026-05-06 17:53 43.85411 19.69973 34953 ft 408 kts 257°
2026-05-06 17:54 43.84079 19.62340 34961 ft 407 kts 257°
2026-05-06 17:54 43.82745 19.54730 34962 ft 406 kts 257°
2026-05-06 17:55 43.81409 19.47142 34965 ft 405 kts 257°
2026-05-06 17:55 43.80079 19.39615 34969 ft 405 kts 257°
2026-05-06 17:56 43.78737 19.32049 34970 ft 404 kts 257°
2026-05-06 17:56 43.77392 19.24514 34972 ft 403 kts 256°
2026-05-06 17:57 43.75840 19.17047 34980 ft 404 kts 256°
2026-05-06 17:57 43.74332 19.09621 34980 ft 402 kts 256°
2026-05-06 17:58 43.72808 19.02191 34978 ft 401 kts 256°
2026-05-06 17:58 43.71273 18.94777 34992 ft 401 kts 255°
2026-05-06 17:59 43.69743 18.87427 34994 ft 400 kts 255°
2026-05-06 17:59 43.68204 18.80053 34999 ft 398 kts 255°
2026-05-06 18:00 43.66669 18.72726 35007 ft 397 kts 255°
2026-05-06 18:00 43.65129 18.65402 35024 ft 397 kts 255°
2026-05-06 18:01 43.64361 18.61756 34869 ft 395 kts 255°
2026-05-06 18:01 43.63592 18.58113 34819 ft 395 kts 255°
2026-05-06 18:01 43.62820 18.54460 34938 ft 398 kts 255°
2026-05-06 18:01 43.62042 18.50785 35003 ft 398 kts 255°
2026-05-06 18:02 43.60487 18.43465 35011 ft 396 kts 255°
2026-05-06 18:02 43.58943 18.36221 35012 ft 397 kts 255°
2026-05-06 18:03 43.57364 18.28843 35013 ft 397 kts 255°
2026-05-06 18:03 43.55806 18.21581 35022 ft 398 kts 255°
2026-05-06 18:04 43.54234 18.14285 35035 ft 397 kts 254°
2026-05-06 18:04 43.52659 18.06996 35037 ft 397 kts 254°
2026-05-06 18:05 43.51076 17.99702 35045 ft 397 kts 254°
2026-05-06 18:05 43.49502 17.92469 35049 ft 394 kts 254°
2026-05-06 18:06 43.47924 17.85245 35048 ft 393 kts 254°
2026-05-06 18:06 43.46345 17.78043 35047 ft 391 kts 254°
2026-05-06 18:07 43.44777 17.70908 35046 ft 390 kts 254°
2026-05-06 18:07 43.43203 17.63780 35047 ft 388 kts 254°
2026-05-06 18:08 43.41633 17.56686 35047 ft 388 kts 254°
2026-05-06 18:08 43.40057 17.49589 35046 ft 388 kts 254°
2026-05-06 18:09 43.38477 17.42501 35046 ft 386 kts 254°
2026-05-06 18:09 43.36909 17.35489 35048 ft 386 kts 254°
2026-05-06 18:10 43.35330 17.28441 35040 ft 385 kts 254°
2026-05-06 18:10 43.33718 17.21421 35036 ft 384 kts 253°
2026-05-06 18:11 43.32079 17.14424 35038 ft 384 kts 253°
2026-05-06 18:11 43.30455 17.07479 35034 ft 384 kts 253°
2026-05-06 18:12 43.28823 17.00510 35037 ft 382 kts 253°
2026-05-06 18:12 43.27192 16.93567 35037 ft 382 kts 253°
2026-05-06 18:13 43.25557 16.86627 35044 ft 382 kts 253°
2026-05-06 18:13 43.23920 16.79704 35047 ft 381 kts 253°
2026-05-06 18:14 43.22279 16.72784 35045 ft 381 kts 253°
2026-05-06 18:14 43.20635 16.65870 35048 ft 381 kts 252°
2026-05-06 18:15 43.18985 16.58957 35042 ft 381 kts 252°
2026-05-06 18:15 43.17331 16.52047 35038 ft 381 kts 252°
2026-05-06 18:16 43.15676 16.45151 35024 ft 381 kts 252°
2026-05-06 18:16 43.14028 16.38304 35015 ft 381 kts 252°
2026-05-06 18:17 43.12360 16.31400 35000 ft 382 kts 252°
2026-05-06 18:17 43.10689 16.24502 34986 ft 382 kts 252°
2026-05-06 18:18 43.09015 16.17609 34980 ft 382 kts 251°
2026-05-06 18:18 43.07335 16.10715 34972 ft 381 kts 251°
2026-05-06 18:19 43.05653 16.03832 34968 ft 382 kts 251°
2026-05-06 18:19 43.03965 15.96944 34967 ft 382 kts 251°
2026-05-06 18:20 43.02267 15.90041 34960 ft 383 kts 251°
2026-05-06 18:20 43.00576 15.83182 34958 ft 383 kts 251°
2026-05-06 18:21 42.98870 15.76286 34952 ft 383 kts 251°
2026-05-06 18:21 42.97158 15.69385 34949 ft 384 kts 251°
2026-05-06 18:22 42.95440 15.62482 34947 ft 384 kts 250°
2026-05-06 18:22 42.93716 15.55574 34943 ft 384 kts 250°
2026-05-06 18:23 42.91987 15.48668 34942 ft 385 kts 250°
2026-05-06 18:23 42.89968 15.41957 34939 ft 384 kts 243°
2026-05-06 18:24 42.87339 15.35601 34936 ft 385 kts 240°
2026-05-06 18:24 42.84682 15.29271 34932 ft 385 kts 240°
2026-05-06 18:25 42.82018 15.22924 34931 ft 385 kts 240°
2026-05-06 18:25 42.79344 15.16578 34928 ft 386 kts 240°
2026-05-06 18:26 42.76687 15.10283 34928 ft 386 kts 240°
2026-05-06 18:26 42.74005 15.03945 34926 ft 386 kts 240°
2026-05-06 18:27 42.71318 14.97608 34924 ft 387 kts 240°
2026-05-06 18:27 42.68628 14.91280 34922 ft 387 kts 240°
2026-05-06 18:28 42.66400 14.86003 34922 ft 387 kts 240°
2026-05-06 18:28 42.63758 14.79628 34765 ft 387 kts 240°
2026-05-06 18:29 42.62433 14.76438 34518 ft 387 kts 240°
2026-05-06 18:29 42.61111 14.73262 34278 ft 386 kts 240°
2026-05-06 18:29 42.59787 14.70087 34045 ft 387 kts 240°
2026-05-06 18:29 42.58460 14.66907 33791 ft 387 kts 240°
2026-05-06 18:30 42.57129 14.63720 33513 ft 389 kts 240°
2026-05-06 18:30 42.55793 14.60526 33248 ft 391 kts 240°
2026-05-06 18:30 42.54445 14.57305 32976 ft 393 kts 240°
2026-05-06 18:30 42.53092 14.54077 32710 ft 394 kts 240°
2026-05-06 18:31 42.51736 14.50847 32451 ft 396 kts 240°
2026-05-06 18:31 42.50369 14.47591 32194 ft 398 kts 240°
2026-05-06 18:31 42.48995 14.44325 31933 ft 399 kts 240°
2026-05-06 18:31 42.47618 14.41054 31668 ft 401 kts 240°
2026-05-06 18:32 42.46233 14.37767 31292 ft 403 kts 239°
2026-05-06 18:32 42.44858 14.34508 30964 ft 405 kts 239°
2026-05-06 18:32 42.43454 14.31186 30608 ft 407 kts 239°
2026-05-06 18:32 42.42049 14.27864 30279 ft 407 kts 239°
2026-05-06 18:33 42.40642 14.24544 29933 ft 405 kts 239°
2026-05-06 18:33 42.39243 14.21246 29537 ft 403 kts 239°
2026-05-06 18:33 42.37852 14.17970 29158 ft 400 kts 239°
2026-05-06 18:33 42.36465 14.14709 28772 ft 398 kts 239°
2026-05-06 18:34 42.35083 14.11468 28389 ft 396 kts 239°
2026-05-06 18:34 42.33710 14.08254 28031 ft 394 kts 239°
2026-05-06 18:34 42.32363 14.05103 27670 ft 392 kts 239°
2026-05-06 18:34 42.30998 14.01914 27302 ft 390 kts 239°
2026-05-06 18:35 42.29645 13.98755 26963 ft 388 kts 239°
2026-05-06 18:35 42.28294 13.95604 26613 ft 387 kts 239°
2026-05-06 18:35 42.26948 13.92469 26260 ft 385 kts 239°
2026-05-06 18:35 42.25604 13.89339 25936 ft 384 kts 239°
2026-05-06 18:36 42.24265 13.86224 25609 ft 383 kts 239°
2026-05-06 18:36 42.22931 13.83124 25265 ft 381 kts 239°
2026-05-06 18:36 42.21606 13.80046 24943 ft 378 kts 239°
2026-05-06 18:36 42.20283 13.76978 24625 ft 377 kts 239°
2026-05-06 18:37 42.19014 13.73884 24296 ft 376 kts 243°
2026-05-06 18:37 42.17993 13.70632 23985 ft 377 kts 248°
2026-05-06 18:37 42.17075 13.67329 23648 ft 377 kts 248°
2026-05-06 18:37 42.16159 13.64060 23142 ft 377 kts 248°
2026-05-06 18:38 42.15229 13.60764 22529 ft 372 kts 248°
2026-05-06 18:38 42.14319 13.57542 22048 ft 366 kts 247°
2026-05-06 18:38 42.13409 13.54330 21527 ft 364 kts 247°
2026-05-06 18:38 42.12513 13.51172 21019 ft 360 kts 247°
2026-05-06 18:39 42.11623 13.48038 20454 ft 357 kts 247°
2026-05-06 18:39 42.10745 13.44950 19957 ft 345 kts 247°
2026-05-06 18:39 42.09911 13.42012 19476 ft 335 kts 246°
2026-05-06 18:40 42.08291 13.36326 18634 ft 314 kts 246°
2026-05-06 18:40 42.07521 13.33625 18250 ft 303 kts 246°
2026-05-06 18:40 42.06776 13.31020 17826 ft 294 kts 246°
2026-05-06 18:40 42.06028 13.28506 17439 ft 283 kts 242°
2026-05-06 18:41 42.05103 13.26223 17067 ft 272 kts 237°
2026-05-06 18:41 42.04118 13.24041 16717 ft 275 kts 237°
2026-05-06 18:41 42.03128 13.21818 16370 ft 276 kts 237°
2026-05-06 18:41 42.02158 13.19631 16017 ft 275 kts 237°
2026-05-06 18:42 42.01182 13.17427 15665 ft 272 kts 237°
2026-05-06 18:42 42.00208 13.15231 15326 ft 275 kts 237°
2026-05-06 18:42 41.99261 13.12999 14987 ft 276 kts 242°
2026-05-06 18:42 41.98460 13.10656 14646 ft 275 kts 243°
2026-05-06 18:43 41.97663 13.08321 14324 ft 274 kts 243°
2026-05-06 18:43 41.96859 13.05985 13989 ft 276 kts 243°
2026-05-06 18:43 41.96050 13.03641 13635 ft 275 kts 243°
2026-05-06 18:43 41.95247 13.01313 13273 ft 274 kts 243°
2026-05-06 18:44 41.94461 12.99038 13052 ft 267 kts 243°
2026-05-06 18:44 41.93672 12.96757 13014 ft 272 kts 243°
2026-05-06 18:44 41.92875 12.94454 13006 ft 271 kts 243°
2026-05-06 18:44 41.92080 12.92163 13007 ft 272 kts 243°
2026-05-06 18:45 41.91282 12.89855 13000 ft 272 kts 245°
2026-05-06 18:45 41.90837 12.87282 12990 ft 303 kts 267°
2026-05-06 18:45 41.91229 12.84328 12848 ft 338 kts 289°
2026-05-06 18:45 41.92290 12.81521 12661 ft 333 kts 299°
2026-05-06 18:46 41.93527 12.78951 12269 ft 322 kts 301°
2026-05-06 18:46 41.94732 12.76495 11892 ft 310 kts 300°
2026-05-06 18:46 41.95864 12.74084 11515 ft 300 kts 299°
2026-05-06 18:46 41.96924 12.71720 11144 ft 290 kts 298°
2026-05-06 18:47 41.97911 12.69452 10791 ft 280 kts 297°
2026-05-06 18:47 41.98863 12.67227 10543 ft 268 kts 297°
2026-05-06 18:47 41.99772 12.65095 10294 ft 255 kts 296°
2026-05-06 18:47 42.00653 12.63015 10067 ft 258 kts 296°
2026-05-06 18:48 42.01544 12.60909 9823 ft 260 kts 296°
2026-05-06 18:48 42.02437 12.58802 9552 ft 257 kts 296°
2026-05-06 18:48 42.03305 12.56761 9285 ft 253 kts 296°
2026-05-06 18:48 42.04180 12.54698 9051 ft 255 kts 296°
2026-05-06 18:49 42.05055 12.52635 8785 ft 253 kts 296°
2026-05-06 18:49 42.05923 12.50586 8529 ft 252 kts 296°
2026-05-06 18:49 42.06790 12.48539 8275 ft 251 kts 296°
2026-05-06 18:49 42.07652 12.46500 8046 ft 249 kts 296°
2026-05-06 18:50 42.08507 12.44479 8001 ft 249 kts 296°
2026-05-06 18:50 42.09367 12.42443 7998 ft 251 kts 296°
2026-05-06 18:50 42.10230 12.40401 7995 ft 250 kts 296°
2026-05-06 18:50 42.11097 12.38404 7994 ft 251 kts 303°
2026-05-06 18:51 42.12403 12.36842 7998 ft 256 kts 330°
2026-05-06 18:51 42.14094 12.36033 8001 ft 258 kts 341°
2026-05-06 18:51 42.15817 12.35330 8000 ft 259 kts 341°
2026-05-06 18:51 42.17543 12.34624 8005 ft 259 kts 340°
2026-05-06 18:52 42.19265 12.33911 7999 ft 259 kts 340°
2026-05-06 18:52 42.20987 12.33190 7999 ft 259 kts 340°
2026-05-06 18:52 42.22703 12.32466 7994 ft 258 kts 340°
2026-05-06 18:52 42.24413 12.31744 8003 ft 258 kts 340°
2026-05-06 18:53 42.26128 12.31019 7997 ft 258 kts 340°
2026-05-06 18:53 42.27841 12.30295 7996 ft 258 kts 340°
2026-05-06 18:53 42.29557 12.29571 7994 ft 259 kts 340°
2026-05-06 18:53 42.31259 12.28855 7999 ft 259 kts 340°
2026-05-06 18:54 42.32978 12.28131 8001 ft 259 kts 340°
2026-05-06 18:54 42.34701 12.27406 7990 ft 259 kts 339°
2026-05-06 18:54 42.36416 12.26682 7993 ft 257 kts 339°
2026-05-06 18:54 42.38098 12.25881 7989 ft 254 kts 327°
2026-05-06 18:55 42.39373 12.24344 7843 ft 243 kts 298°
2026-05-06 18:55 42.39899 12.22239 7477 ft 235 kts 268°
2026-05-06 18:55 42.39583 12.20109 7127 ft 230 kts 242°
2026-05-06 18:55 42.38654 12.18432 7000 ft 220 kts 219°
2026-05-06 18:56 42.37346 12.17335 6997 ft 228 kts 208°
2026-05-06 18:56 42.35953 12.16322 6999 ft 227 kts 209°
2026-05-06 18:56 42.34566 12.15283 6993 ft 227 kts 209°
2026-05-06 18:56 42.33192 12.14247 6998 ft 228 kts 209°
2026-05-06 18:57 42.31790 12.13213 6992 ft 229 kts 204°
2026-05-06 18:57 42.30246 12.12857 6995 ft 228 kts 175°
2026-05-06 18:57 42.28696 12.13409 6993 ft 234 kts 165°
2026-05-06 18:57 42.27145 12.14082 6992 ft 234 kts 165°
2026-05-06 18:58 42.25605 12.14746 6879 ft 232 kts 165°
2026-05-06 18:58 42.24066 12.15402 6539 ft 232 kts 165°
2026-05-06 18:58 42.22526 12.16055 6181 ft 231 kts 165°
2026-05-06 18:58 42.20989 12.16703 5801 ft 231 kts 165°
2026-05-06 18:59 42.19475 12.17341 5423 ft 230 kts 165°
2026-05-06 18:59 42.17971 12.17973 5089 ft 222 kts 164°
2026-05-06 18:59 42.16553 12.18568 4993 ft 203 kts 164°
2026-05-06 18:59 42.15219 12.19040 4810 ft 198 kts 175°
2026-05-06 19:00 42.13847 12.18925 4385 ft 199 kts 193°
2026-05-06 19:00 42.12499 12.18485 3977 ft 199 kts 192°
2026-05-06 19:00 42.11158 12.18064 3582 ft 198 kts 192°
2026-05-06 19:00 42.10265 12.17791 3298 ft 199 kts 192°
2026-05-06 19:01 42.08481 12.17250 3005 ft 196 kts 191°
2026-05-06 19:01 42.07115 12.17045 2983 ft 196 kts 178°
2026-05-06 19:01 42.05778 12.17289 2979 ft 194 kts 168°
2026-05-06 19:01 42.04507 12.17749 2980 ft 181 kts 164°
2026-05-06 19:02 42.03350 12.18240 2994 ft 169 kts 163°
2026-05-06 19:02 42.02206 12.18723 2960 ft 173 kts 163°
2026-05-06 19:02 42.01086 12.19197 2972 ft 163 kts 163°
2026-05-06 19:02 42.00017 12.19648 2964 ft 164 kts 163°
2026-05-06 19:03 41.98931 12.20106 2921 ft 163 kts 164°
2026-05-06 19:03 41.97864 12.20558 2732 ft 157 kts 164°
2026-05-06 19:03 41.96866 12.20979 2528 ft 143 kts 165°
2026-05-06 19:03 41.95956 12.21363 2344 ft 131 kts 165°
2026-05-06 19:04 41.95126 12.21712 2157 ft 122 kts 165°
2026-05-06 19:04 41.94293 12.22062 2001 ft 125 kts 164°
2026-05-06 19:04 41.93471 12.22409 1841 ft 123 kts 164°
2026-05-06 19:04 41.92653 12.22753 1683 ft 122 kts 163°
2026-05-06 19:05 41.91868 12.23089 1513 ft 119 kts 163°
2026-05-06 19:05 41.91070 12.23417 1364 ft 119 kts 163°
2026-05-06 19:05 41.90271 12.23783 1255 ft 124 kts 162°
2026-05-06 19:05 41.89446 12.24128 1080 ft 125 kts 165°
2026-05-06 19:06 41.88595 12.24483 861 ft 127 kts 163°
2026-05-06 19:06 41.87776 12.24836 623 ft 122 kts 162°
2026-05-06 19:06 41.86958 12.25165 503 ft 122 kts 163°
2026-05-06 19:06 41.86133 12.25521 363 ft 129 kts 163°
2026-05-06 19:07 41.85289 12.25871 208 ft 125 kts 162°
2026-05-06 19:07 41.84736 12.26100 107 ft 127 kts 161°
2026-05-06 19:07 41.83696 12.26533 23 ft 94 kts 163°
2026-05-06 19:07 41.83236 12.26718 19 ft 56 kts 163°
2026-05-06 19:08 41.82933 12.26844 21 ft 36 kts 167°
2026-05-06 19:08 41.82732 12.26869 23 ft 27 kts 187°
2026-05-06 19:08 41.82559 12.26825 18 ft 13 kts 192°
2026-05-06 19:08 41.82554 12.26824 18 ft 0 kts 192°
2026-05-06 19:09 41.82547 12.26822 18 ft 4 kts 192°
2026-05-06 19:10 41.82488 12.26805 18 ft 12 kts 192°
2026-05-06 19:10 41.82390 12.26780 16 ft 16 kts 186°
2026-05-06 19:10 41.82273 12.26799 17 ft 18 kts 163°
2026-05-06 19:10 41.82146 12.26852 13 ft 20 kts 162°
2026-05-06 19:11 41.82011 12.26909 16 ft 20 kts 162°
2026-05-06 19:11 41.81872 12.26967 15 ft 22 kts 163°
2026-05-06 19:11 41.81728 12.27027 19 ft 21 kts 163°
2026-05-06 19:11 41.81587 12.27085 20 ft 21 kts 163°
2026-05-06 19:12 41.81446 12.27146 21 ft 21 kts 162°
2026-05-06 19:12 41.81293 12.27209 16 ft 25 kts 162°
2026-05-06 19:12 41.81126 12.27279 15 ft 26 kts 163°
2026-05-06 19:12 41.81011 12.27328 15 ft 27 kts 162°
2026-05-06 19:13 41.80771 12.27320 14 ft 27 kts 188°
2026-05-06 19:13 41.80640 12.27172 14 ft 26 kts 251°
2026-05-06 19:13 41.80575 12.26937 15 ft 27 kts 249°
2026-05-06 19:13 41.80508 12.26692 14 ft 29 kts 249°
2026-05-06 19:14 41.80461 12.26524 15 ft 29 kts 249°
2026-05-06 19:14 41.80401 12.26304 15 ft 16 kts 249°
2026-05-06 19:14 41.80378 12.26220 14 ft 0 kts 249°
2026-05-06 19:14 41.80368 12.26186 16 ft 7 kts 249°
2026-05-06 19:15 41.80343 12.26099 14 ft 13 kts 249°
2026-05-06 19:15 41.80319 12.26010 13 ft 17 kts 251°
2026-05-06 19:15 41.80274 12.25843 14 ft 20 kts 249°
2026-05-06 19:15 41.80222 12.25656 17 ft 22 kts 250°
2026-05-06 19:16 41.80168 12.25463 20 ft 22 kts 249°
2026-05-06 19:16 41.80113 12.25258 18 ft 25 kts 249°
2026-05-06 19:16 41.80104 12.25037 19 ft 23 kts 279°
2026-05-06 19:16 41.80090 12.24820 16 ft 25 kts 254°
2026-05-06 19:17 41.80026 12.24587 16 ft 28 kts 250°
2026-05-06 19:17 41.79939 12.24388 12 ft 18 kts 185°
2026-05-06 19:17 41.79827 12.24432 15 ft 17 kts 160°
2026-05-06 19:17 41.79713 12.24487 16 ft 18 kts 159°
2026-05-06 19:18 41.79612 12.24540 17 ft 12 kts 158°
2026-05-06 19:18 41.79594 12.24551 18 ft 0 kts 158°
2026-05-06 19:18 41.79595 12.24550 18 ft 2 kts 158°
2026-05-06 19:19 41.79611 12.24541 16 ft 1 kts 158°
2026-05-06 19:19 41.79605 12.24559 16 ft 3 kts 110°
2026-05-06 19:19 41.79611 12.24599 16 ft 6 kts 70°
2026-05-06 19:19 41.79618 12.24624 17 ft 0 kts 70°
2026-05-06 19:20 41.79623 12.24643 16 ft 4 kts 69°
2026-05-06 19:20 41.79625 12.24651 18 ft 0 kts 69°
2026-05-06 19:21 41.79625 12.24652 18 ft 0 kts 69°